Regional Weather Roundup
Issued by NWS State College, PA

Home | Current Version | Previous Version | Graphics & Text | Print | Product List | Glossary Off
Versions: 1 2 3 4 5 6 7 8 9 10 11 12 13 14 15 16 17 18 19 20 21 22 23 24 25 26 27 28 29 30 31 32 33 34 35 36 37 38 39 40 41 42 43 44 45 46 47 48 49 50

319
ASUS41 KCTP 220310
RWRCTP

REGIONAL WEATHER ROUNDUP
NATIONAL WEATHER SERVICE STATE COLLEGE PA
1100 PM EDT MON AUG 21 2017

Note: "fair" indicates few or no clouds below 12,000 feet with no
significant weather and/or obstructions to visibility.

* = STATION THAT DOES NOT REPORT PRECIPITATION /E.G. RAIN...SNOW...ETC/
    THUNDER OR FOG.

PAZ002>004-007>009-013>016-020>023-029>032-220400-
WESTERN PENNSYLVANIA

CITY           SKY/WX    TMP DP  RH WIND       PRES   REMARKS
ERIE           CLEAR     77  68  73 S9        30.04F
MEADVILLE      CLEAR     74  71  91 VRB3      30.10F
FRANKLIN*      CLEAR     70  66  88 S5        30.12F
NEW CASTLE     FAIR      76  71  85 VRB3      30.10
BEAVER COUNTY  NOT AVBL
BUTLER*        PTCLDY    73  72  94 S3        30.13F
PITTSBURGH INT PTCLDY    76  72  87 S5        30.12F
PITTSBURGH     CLEAR     76  69  79 S7        30.12F
INDIANA*       CLEAR     72  72 100 CALM      30.17F
LATROBE        CLEAR     72  72 100 CALM      30.14F
WASHINGTON CO* CLEAR     70  66  88 CALM      30.13F
$$

PAZ004>006-010>012-017>019-024>028-033>037-041-042-045-046-049>053-220400-
CENTRAL PENNSYLVANIA

CITY           SKY/WX    TMP DP  RH WIND       PRES   REMARKS
BRADFORD       LGT RAIN  70  68  93 CALM      30.15F
DUBOIS         CLEAR     71  67  87 CALM      30.14F
CLEARFIELD     FOG       69  68  96 N5        30.14F VSB 1
JOHNSTOWN      CLEAR     72  67  84 SW7       30.19F
ALTOONA        CLEAR     70  68  93 SW6       30.16F
STATE COLLEGE  PTCLDY    72  68  88 SW5       30.13F
WILLIAMSPORT   MOCLDY    70  70 100 CALM      30.10R FOG
SELINSGROVE    CLOUDY    70  70 100 CALM      30.11R FOG
FT INDIANTOWN  PTCLDY    70  70 100 CALM      30.13S
CAPITAL CITY   PTCLDY    76  69  79 SE5       30.11F
HARRISBURG     PTCLDY    75  72  90 SE6       30.11S
YORK           PTCLDY    73  72  96 CALM      30.12R
$$

PAZ038>040-043-044-047-048-054-055-060>062-067>071-220400-
EASTERN PENNSYLVANIA

CITY           SKY/WX    TMP DP  RH WIND       PRES   REMARKS
SCRANTON       CLEAR     69  68  96 CALM      30.13S FOG
MOUNT POCONO   PTCLDY    68  68 100 W5        30.17F
ALLENTOWN      PTCLDY    74  70  87 CALM      30.12S
QUAKERTOWN*    PTCLDY    73  73 100 CALM      30.13F
READING        CLOUDY    72  72 100 CALM      30.11F
LANCASTER      CLOUDY    71  71 100 E5        30.12F
COATESVILLE    MOCLDY    73  70  88 NW5       30.17S
POTTSTOWN      PTCLDY    75  74  96 SW3       30.14F
BLUE BELL      CLOUDY    73  72  94 CALM      30.13F
DOYLESTOWN     PTCLDY    76  72  87 S3        30.12F
WILLOW GROVE   NOT AVBL
NORTH PHILA    MOCLDY    79  72  79 SW5       30.13F
PHILADELPHIA   CLOUDY    78  73  84 S8        30.12F
$$




USA.gov is the U.S. government's official web portal to all federal, state and local government web resources and services.